EN

Hourly Weather Abdurashid

Today, 13 June, Sunday

Time Temperature Precipitation Wind Pressure Humidity
00:00 +20°C° 0 mm 2 mps 756 mmHg 73%
01:00 +20°C° 0 mm 2 mps 756 mmHg 74%
02:00 +20°C° 0 mm 2 mps 756 mmHg 75%
03:00 +20°C° 0 mm 2 mps 755 mmHg 76%
04:00 +21°C° 0 mm 2 mps 755 mmHg 74%
05:00 +21°C° 0 mm 2 mps 755 mmHg 72%
06:00 +23°C° 0 mm 1 mps 756 mmHg 70%
07:00 +24°C° 0 mm 2 mps 755 mmHg 66%
08:00 +25°C° 0 mm 2 mps 755 mmHg 61%
09:00 +27°C° 0 mm 2 mps 755 mmHg 57%
10:00 +28°C° 0.1 mm 2 mps 755 mmHg 53%
11:00 +29°C° 0.1 mm 2 mps 755 mmHg 48%
12:00 +31°C° 0.1 mm 2 mps 755 mmHg 44%
13:00 +30°C° 0.2 mm 3 mps 755 mmHg 48%
14:00 +29°C° 0.2 mm 4 mps 755 mmHg 53%
15:00 +28°C° 0.2 mm 5 mps 755 mmHg 57%
16:00 +26°C° 0.9 mm 4 mps 755 mmHg 67%
17:00 +23°C° 0.9 mm 4 mps 756 mmHg 76%
18:00 +21°C° 0.9 mm 4 mps 756 mmHg 86%
19:00 +21°C° 0.3 mm 4 mps 757 mmHg 88%
20:00 +20°C° 0.3 mm 3 mps 757 mmHg 90%
21:00 +20°C° 0.3 mm 2 mps 757 mmHg 92%
22:00 +20°C° 0.3 mm 2 mps 757 mmHg 93%
23:00 +19°C° 0.3 mm 2 mps 757 mmHg 94%

Tomorrow, 14 June, Monday

Time Temperature Precipitation Wind Pressure Humidity
00:00 +19°C° 0.3 mm 2 mps 757 mmHg 95%
01:00 +19°C° 0 mm 2 mps 757 mmHg 95%
02:00 +18°C° 0 mm 2 mps 757 mmHg 94%
03:00 +18°C° 0 mm 2 mps 757 mmHg 93%
04:00 +19°C° 0 mm 3 mps 757 mmHg 90%
05:00 +19°C° 0 mm 3 mps 757 mmHg 87%
06:00 +20°C° 0 mm 3 mps 757 mmHg 84%
07:00 +22°C° 0 mm 3 mps 757 mmHg 77%
08:00 +24°C° 0 mm 3 mps 757 mmHg 69%
09:00 +26°C° 0 mm 3 mps 757 mmHg 61%
10:00 +28°C° 0 mm 3 mps 756 mmHg 55%
11:00 +29°C° 0 mm 3 mps 756 mmHg 49%
12:00 +31°C° 0 mm 3 mps 756 mmHg 43%
13:00 +33°C° 0 mm 3 mps 755 mmHg 40%
14:00 +32°C° 0 mm 2 mps 755 mmHg 38%
15:00 +34°C° 0 mm 2 mps 755 mmHg 35%
16:00 +34°C° 0 mm 3 mps 755 mmHg 37%
17:00 +33°C° 0 mm 3 mps 755 mmHg 39%
18:00 +31°C° 0 mm 3 mps 755 mmHg 41%
19:00 +29°C° 0 mm 2 mps 755 mmHg 49%
20:00 +27°C° 0 mm 2 mps 755 mmHg 57%
21:00 +24°C° 0 mm 2 mps 755 mmHg 65%
22:00 +24°C° 0 mm 2 mps 755 mmHg 65%
23:00 +24°C° 0 mm 2 mps 755 mmHg 66%

Day after tomorrow, 15 June, Tuesday

Time Temperature Precipitation Wind Pressure Humidity
00:00 +23°C° 0 mm 2 mps 754 mmHg 67%
01:00 +23°C° 0 mm 2 mps 754 mmHg 67%
02:00 +23°C° 0 mm 1 mps 754 mmHg 68%
03:00 +23°C° 0 mm 1 mps 754 mmHg 68%
04:00 +23°C° 0 mm 1 mps 754 mmHg 66%
05:00 +24°C° 0 mm 1 mps 754 mmHg 64%
06:00 +25°C° 0 mm 1 mps 754 mmHg 61%
07:00 +27°C° 0 mm 2 mps 753 mmHg 55%
08:00 +29°C° 0 mm 2 mps 753 mmHg 49%
09:00 +31°C° 0 mm 3 mps 753 mmHg 43%
10:00 +33°C° 0 mm 3 mps 753 mmHg 41%
11:00 +34°C° 0 mm 4 mps 753 mmHg 39%
12:00 +35°C° 0 mm 4 mps 753 mmHg 37%
13:00 +35°C° 0 mm 5 mps 753 mmHg 37%
14:00 +35°C° 0 mm 5 mps 753 mmHg 37%
15:00 +35°C° 0 mm 5 mps 753 mmHg 37%
16:00 +34°C° 0 mm 5 mps 753 mmHg 40%
17:00 +33°C° 0 mm 5 mps 754 mmHg 42%
18:00 +32°C° 0 mm 4 mps 754 mmHg 45%
19:00 +29°C° 0 mm 4 mps 754 mmHg 52%
20:00 +27°C° 0 mm 3 mps 754 mmHg 59%
21:00 +24°C° 0 mm 3 mps 755 mmHg 66%
22:00 +24°C° 0 mm 2 mps 754 mmHg 67%
23:00 +24°C° 0 mm 2 mps 754 mmHg 67%

16 June, Wednesday

Time Temperature Precipitation Wind Pressure Humidity
00:00 +24°C° 0 mm 2 mps 754 mmHg 68%
01:00 +23°C° 0 mm 2 mps 754 mmHg 69%
02:00 +23°C° 0 mm 2 mps 754 mmHg 69%
03:00 +23°C° 0 mm 2 mps 754 mmHg 70%
04:00 +24°C° 0 mm 2 mps 754 mmHg 67%
05:00 +25°C° 0 mm 3 mps 754 mmHg 65%
06:00 +26°C° 0 mm 3 mps 753 mmHg 62%
07:00 +28°C° 0 mm 5 mps 753 mmHg 54%
08:00 +32°C° 0 mm 6 mps 752 mmHg 46%
09:00 +34°C° 0 mm 8 mps 752 mmHg 37%
10:00 +35°C° 0 mm 8 mps 752 mmHg 35%
11:00 +37°C° 0 mm 8 mps 751 mmHg 33%
12:00 +37°C° 0 mm 9 mps 751 mmHg 31%
13:00 +37°C° 0 mm 9 mps 751 mmHg 31%
14:00 +37°C° 0 mm 8 mps 751 mmHg 31%
15:00 +37°C° 0 mm 8 mps 751 mmHg 31%
16:00 +34°C° 0 mm 7 mps 751 mmHg 35%
17:00 +33°C° 0 mm 5 mps 752 mmHg 40%
18:00 +30°C° 0 mm 4 mps 752 mmHg 44%
19:00 +28°C° 0 mm 3 mps 752 mmHg 53%
20:00 +26°C° 0 mm 2 mps 753 mmHg 62%
21:00 +24°C° 0 mm 1 mps 753 mmHg 71%
22:00 +24°C° 0 mm 2 mps 753 mmHg 71%
23:00 +24°C° 0 mm 3 mps 754 mmHg 71%

17 June, Thursday

Time Temperature Precipitation Wind Pressure Humidity
00:00 +24°C° 0 mm 3 mps 754 mmHg 72%
01:00 +23°C° 0 mm 4 mps 754 mmHg 75%
02:00 +23°C° 0 mm 5 mps 754 mmHg 78%
03:00 +23°C° 0 mm 6 mps 754 mmHg 81%
04:00 +23°C° 0 mm 6 mps 754 mmHg 78%
05:00 +23°C° 0 mm 6 mps 754 mmHg 75%
06:00 +24°C° 0 mm 6 mps 754 mmHg 72%
07:00 +27°C° 0 mm 5 mps 754 mmHg 64%
08:00 +29°C° 0 mm 4 mps 754 mmHg 57%
09:00 +30°C° 0 mm 4 mps 753 mmHg 49%
10:00 +33°C° 0 mm 3 mps 753 mmHg 45%
11:00 +35°C° 0 mm 2 mps 753 mmHg 41%
12:00 +35°C° 0 mm 1 mps 752 mmHg 38%
13:00 +37°C° 0 mm 2 mps 752 mmHg 36%
14:00 +38°C° 0 mm 3 mps 752 mmHg 35%
15:00 +38°C° 0 mm 3 mps 751 mmHg 34%
16:00 +37°C° 0 mm 3 mps 752 mmHg 37%
17:00 +36°C° 0 mm 3 mps 752 mmHg 39%
18:00 +35°C° 0 mm 3 mps 753 mmHg 42%
19:00 +33°C° 0.3 mm 4 mps 753 mmHg 53%
20:00 +29°C° 0.3 mm 5 mps 754 mmHg 63%
21:00 +27°C° 0.3 mm 5 mps 755 mmHg 74%
22:00 +26°C° 0.2 mm 5 mps 756 mmHg 77%
23:00 +26°C° 0.2 mm 5 mps 756 mmHg 80%

18 June, Friday

Time Temperature Precipitation Wind Pressure Humidity
00:00 +25°C° 0.2 mm 5 mps 756 mmHg 84%
01:00 +23°C° 1.6 mm 6 mps 757 mmHg 84%
02:00 +23°C° 1.6 mm 6 mps 758 mmHg 84%
03:00 +22°C° 1.6 mm 6 mps 758 mmHg 84%
04:00 +22°C° 0.8 mm 6 mps 758 mmHg 83%
05:00 +22°C° 0.8 mm 6 mps 759 mmHg 81%
06:00 +22°C° 0.8 mm 6 mps 759 mmHg 80%
07:00 +23°C° 0.2 mm 6 mps 759 mmHg 72%
08:00 +24°C° 0.2 mm 6 mps 759 mmHg 63%
09:00 +27°C° 0.2 mm 6 mps 759 mmHg 55%
10:00 +29°C° 0 mm 6 mps 758 mmHg 49%
11:00 +30°C° 0 mm 5 mps 758 mmHg 43%
12:00 +33°C° 0 mm 4 mps 758 mmHg 38%
13:00 +33°C° 0 mm 4 mps 758 mmHg 37%
14:00 +34°C° 0 mm 3 mps 758 mmHg 36%
15:00 +34°C° 0 mm 3 mps 757 mmHg 35%
16:00 +34°C° 0 mm 2 mps 757 mmHg 36%
17:00 +34°C° 0 mm 2 mps 757 mmHg 37%
18:00 +32°C° 0 mm 2 mps 757 mmHg 39%
19:00 +30°C° 0 mm 1 mps 758 mmHg 45%
20:00 +28°C° 0 mm 1 mps 758 mmHg 51%
21:00 +26°C° 0 mm 1 mps 758 mmHg 56%
22:00 +26°C° 0 mm 2 mps 758 mmHg 58%
23:00 +25°C° 0 mm 2 mps 758 mmHg 59%
Show more